Weather History for KEWK - November, 2013

Change the Weather History Date:

Friday, November 15, 2013

  Actual Average Record
Temperature  
Mean Temperature 46 °F -  
Max Temperature 59 °F 52 °F 69 °F (2001)
Min Temperature 33 °F 34 °F 21 °F (1997)
Degree Days  
Heating Degree Days 19    
Moisture  
Dew Point 35 °F    
Average Humidity 65    
Maximum Humidity 81    
Minimum Humidity 45    
Precipitation  
Precipitation 0.00 in - - ()
Sea Level Pressure  
Sea Level Pressure 29.82 in    
Wind  
Wind Speed 12 mph (South)    
Max Wind Speed 22 mph    
Max Gust Speed 30 mph    
Visibility 10 miles    
Events      
Averages and records for this station are not official NWS values.
T = Trace of Precipitation, MM = Missing Value Source: NWS Daily Summary

Daily Weather History Graph

Daily Weather History Graph

Search for Another Location

Airport or City:

Trip Planner

Search our weather history database for the weather conditions in past years. The results will help you decide how hot, cold, wet, or windy it might be!

Date:

Astronomy

Nov. 15, 2013 Rise Set
Actual Time 7:10 AM CST 5:16 PM CST
Civil Twilight 6:42 AM CST 5:45 PM CST
Nautical Twilight 6:10 AM CST 6:16 PM CST
Astronomical Twilight 5:39 AM CST 6:48 PM CST
Moon 4:13 PM CST (11/15) 5:09 AM CST (11/15)
Length of Visible Light 11h 02m
Length of Day
10h 06m
Waxing Gibbous, 96% of the Moon is Illuminated
Nov 15
Waxing Gibbous
Nov 17
Full
Nov 25
Last Quarter
Dec 2
New
Dec 9
First Quarter

Hourly Weather History & Observations

Time (CST) Temp. Windchill Dew Point Humidity Pressure Visibility Wind Dir Wind Speed Gust Speed Precip Events Conditions
12:15 AM 39.2 °F 31.6 °F 28.4 °F 65% 29.95 in 10.0 mi SSW 12.7 mph - N/A   Clear
12:35 AM 39.2 °F 31.6 °F 28.4 °F 65% 29.95 in 10.0 mi SSW 12.7 mph - N/A   Clear
12:55 AM 39.2 °F 31.6 °F 28.4 °F 65% 29.94 in 10.0 mi South 12.7 mph - N/A   Clear
1:15 AM 39.2 °F 32.0 °F 28.4 °F 65% 29.93 in 10.0 mi South 11.5 mph - N/A   Clear
1:35 AM 39.2 °F 32.5 °F 28.4 °F 65% 29.93 in 10.0 mi South 10.4 mph - N/A   Clear
1:55 AM 37.4 °F 31.4 °F 28.4 °F 70% 29.93 in 10.0 mi South 8.1 mph - N/A   Clear
2:15 AM 37.4 °F 31.4 °F 26.6 °F 65% 29.92 in 10.0 mi South 8.1 mph - N/A   Clear
2:35 AM 35.6 °F 29.2 °F 26.6 °F 70% 29.92 in 10.0 mi South 8.1 mph - N/A   Clear
2:55 AM 35.6 °F 29.9 °F 26.6 °F 70% 29.93 in - South 6.9 mph - N/A   Clear
3:15 AM 35.6 °F 29.9 °F 26.6 °F 70% 29.93 in 10.0 mi South 6.9 mph - N/A   Clear
3:35 AM 33.8 °F 27.7 °F 26.6 °F 75% 29.91 in 10.0 mi SSE 6.9 mph - N/A   Clear
3:55 AM 33.8 °F 27.0 °F 26.6 °F 75% 29.91 in 10.0 mi SSE 8.1 mph - N/A   Clear
4:15 AM 33.8 °F 27.7 °F 26.6 °F 75% 29.91 in 10.0 mi SSE 6.9 mph - N/A   Clear
4:35 AM 33.8 °F 27.7 °F 26.6 °F 75% 29.92 in 10.0 mi SSE 6.9 mph - N/A   Clear
4:55 AM 35.6 °F 29.9 °F 26.6 °F 70% 29.92 in 10.0 mi SSE 6.9 mph - N/A   Clear
5:15 AM 33.8 °F 27.7 °F 26.6 °F 75% 29.92 in 10.0 mi South 6.9 mph - N/A   Clear
5:35 AM 35.6 °F 29.2 °F 26.6 °F 70% 29.91 in 10.0 mi SSE 8.1 mph - N/A   Clear
5:55 AM 33.8 °F 27.0 °F 26.6 °F 75% 29.91 in 10.0 mi SSE 8.1 mph - N/A   Clear
6:15 AM 33.8 °F 27.0 °F 26.6 °F 75% 29.90 in 10.0 mi SSE 8.1 mph - N/A   Clear
6:35 AM 33.8 °F 28.6 °F 26.6 °F 75% 29.91 in 10.0 mi SSE 5.8 mph - N/A   Clear
6:55 AM 33.8 °F 27.0 °F 26.6 °F 75% 29.91 in 10.0 mi SSE 8.1 mph - N/A   Clear
7:15 AM 33.8 °F 27.7 °F 26.6 °F 75% 29.91 in 10.0 mi SSE 6.9 mph - N/A   Clear
7:35 AM 33.8 °F 27.7 °F 28.4 °F 81% 29.91 in 10.0 mi SSE 6.9 mph - N/A   Clear
7:55 AM 35.6 °F 29.2 °F 28.4 °F 75% 29.91 in 10.0 mi SSE 8.1 mph - N/A   Clear
8:15 AM 37.4 °F 31.4 °F 30.2 °F 75% 29.91 in 10.0 mi South 8.1 mph - N/A   Clear
8:35 AM 39.2 °F 33.6 °F 32.0 °F 75% 29.90 in 10.0 mi South 8.1 mph - N/A   Clear
8:55 AM 41.0 °F 34.3 °F 33.8 °F 76% 29.90 in 10.0 mi South 11.5 mph - N/A   Clear
9:15 AM 42.8 °F 37.0 °F 33.8 °F 70% 29.90 in 10.0 mi South 10.4 mph - N/A   Clear
9:35 AM 44.6 °F 38.4 °F 35.6 °F 71% 29.89 in 10.0 mi South 12.7 mph - N/A   Clear
9:55 AM 46.4 °F 40.7 °F 35.6 °F 66% 29.89 in 10.0 mi South 12.7 mph - N/A   Clear
10:15 AM 48.2 °F - 35.6 °F 62% 29.89 in 10.0 mi South 13.8 mph - N/A   Clear
10:35 AM 48.2 °F - 37.4 °F 66% 29.89 in 10.0 mi South 11.5 mph - N/A   Clear
10:55 AM 51.8 °F - 35.6 °F 54% 29.88 in 10.0 mi South 12.7 mph - N/A   Clear
11:15 AM 51.8 °F - 35.6 °F 54% 29.89 in 10.0 mi SSW 13.8 mph 18.4 mph N/A   Clear
11:35 AM 51.8 °F - 35.6 °F 54% 29.87 in 10.0 mi South 13.8 mph - N/A   Clear
11:55 AM 53.6 °F - 35.6 °F 51% 29.86 in 10.0 mi South 11.5 mph 18.4 mph N/A   Clear
12:15 PM 53.6 °F - 35.6 °F 51% 29.85 in 10.0 mi South 13.8 mph - N/A   Clear
12:35 PM 55.4 °F - 37.4 °F 51% 29.84 in 10.0 mi South 15.0 mph - N/A   Clear
12:55 PM 55.4 °F - 37.4 °F 51% 29.83 in 10.0 mi South 18.4 mph - N/A   Clear
1:15 PM 57.2 °F - 37.4 °F 48% 29.82 in 10.0 mi SSW 16.1 mph 20.7 mph N/A   Clear
1:35 PM 57.2 °F - 37.4 °F 48% 29.80 in 10.0 mi South 17.3 mph 24.2 mph N/A   Clear
1:55 PM 59.0 °F - 37.4 °F 45% 29.79 in 10.0 mi South 18.4 mph 21.9 mph N/A   Clear
2:15 PM 59.0 °F - 37.4 °F 45% 29.78 in 10.0 mi South 17.3 mph - N/A   Clear
2:35 PM 59.0 °F - 37.4 °F 45% 29.76 in 10.0 mi SSE 12.7 mph - N/A   Clear
2:55 PM 59.0 °F - 37.4 °F 45% 29.75 in 10.0 mi South 17.3 mph 20.7 mph N/A   Clear
3:15 PM 57.2 °F - 37.4 °F 48% 29.75 in 10.0 mi South 15.0 mph 23.0 mph N/A   Clear
3:35 PM 57.2 °F - 37.4 °F 48% 29.74 in 10.0 mi South 16.1 mph - N/A   Clear
3:55 PM 57.2 °F - 37.4 °F 48% 29.73 in 10.0 mi South 16.1 mph 23.0 mph N/A   Clear
4:15 PM 57.2 °F - 37.4 °F 48% 29.72 in 10.0 mi South 18.4 mph 25.3 mph N/A   Clear
4:35 PM 57.2 °F - 39.2 °F 51% 29.71 in 10.0 mi South 16.1 mph 21.9 mph N/A   Clear
4:55 PM 55.4 °F - 39.2 °F 54% 29.70 in 10.0 mi South 15.0 mph 21.9 mph N/A   Clear
5:15 PM 55.4 °F - 39.2 °F 54% 29.69 in 10.0 mi SSE 13.8 mph 18.4 mph N/A   Clear
5:35 PM 53.6 °F - 39.2 °F 58% 29.69 in 10.0 mi SSE 12.7 mph - N/A   Clear
5:55 PM 53.6 °F - 39.2 °F 58% 29.69 in 10.0 mi SSE 13.8 mph - N/A   Clear
6:15 PM 53.6 °F - 39.2 °F 58% 29.69 in 10.0 mi SSE 15.0 mph - N/A   Clear
6:35 PM 53.6 °F - 41.0 °F 62% 29.71 in 10.0 mi South 11.5 mph - N/A   Clear
6:55 PM 51.8 °F - 41.0 °F 67% 29.70 in 10.0 mi South 12.7 mph - N/A   Clear
7:15 PM 51.8 °F - 42.8 °F 71% 29.70 in 10.0 mi South 15.0 mph 20.7 mph N/A   Clear
7:35 PM 53.6 °F - 42.8 °F 67% 29.70 in 10.0 mi South 16.1 mph 21.9 mph N/A   Clear
7:55 PM 53.6 °F - 42.8 °F 67% 29.69 in 10.0 mi South 17.3 mph 23.0 mph N/A   Clear
8:15 PM 51.8 °F - 42.8 °F 71% 29.69 in 10.0 mi SSE 13.8 mph 20.7 mph N/A   Clear
8:35 PM 51.8 °F - 42.8 °F 71% 29.70 in 10.0 mi South 17.3 mph 25.3 mph N/A   Clear
8:55 PM 51.8 °F - 42.8 °F 71% 29.70 in 10.0 mi South 17.3 mph 26.5 mph N/A   Clear
9:15 PM 51.8 °F - 42.8 °F 71% 29.70 in 10.0 mi South 19.6 mph 24.2 mph N/A   Clear
9:35 PM 51.8 °F - 42.8 °F 71% 29.69 in 10.0 mi South 18.4 mph 27.6 mph N/A   Clear
9:55 PM 51.8 °F - 42.8 °F 71% 29.69 in 10.0 mi South 20.7 mph 27.6 mph N/A   Clear
10:15 PM 51.8 °F - 42.8 °F 71% 29.69 in 10.0 mi South 19.6 mph 26.5 mph N/A   Clear
10:35 PM 51.8 °F - 44.6 °F 76% 29.68 in 10.0 mi South 18.4 mph 27.6 mph N/A   Clear
10:55 PM 51.8 °F - 44.6 °F 76% 29.67 in 10.0 mi South 21.9 mph 27.6 mph N/A   Clear
11:15 PM 51.8 °F - 44.6 °F 76% 29.67 in 10.0 mi South 21.9 mph 29.9 mph N/A   Clear
11:35 PM 53.6 °F - 44.6 °F 72% 29.66 in 10.0 mi South 18.4 mph 25.3 mph N/A   Clear
11:55 PM 53.6 °F - 44.6 °F 72% 29.66 in 10.0 mi South 19.6 mph 29.9 mph N/A   Clear